Temp
44 43 43 42 44 47 50 49 49 48 49 50 50 50 50 49 48 46 40 43 41 34 33 34 34 33 35 38 36 35 38 37 34 34 34 33 33 35 36 40 37 36 34 33 34 32 29 50 47 45 52 48 49 51
42 42 41 42 46 49 49 49 49 49 50 50 50 50 49 49 48 47 40 44 43 34 33 36 36 36 34 34 37 36 37 35 45 36 35 34 32 34 34 30 42 37 44 38 40 40 46 49 50 52 49 50 48 50
40 40 42 44 49 50 49 49 49 49 49 50 50 49 49 48 47 47 40 40 41 32 34 36 33 37 39 37 38 37 37 42 39 45 37 34 33 38 34 36 39 41 50 43 41 46 45 47 46 47 49 49 48 47
44 44 47 49 49 49 49 49 49 49 49 49 49 48 47 47 46 45 38 40 40 34 32 32 38 36 38 40 40 40 40 42 42 42 35 33 32 37 38 39 40 43 42 36 37 39 42 43 46 48 44 43 42 42
46 47 48 49 48 49 49 49 49 49 49 48 48 47 47 46 46 44 42 41 41 35 30 32 34 35 38 39 37 38 38 38 36 35 34 32 35 35 34 38 37 42 43 41 41 45 50 48 46 44 42 42 41 40
47 47 48 48 47 46 46 47 48 48 48 48 48 46 46 45 43 43 33 40 41 38 33 28 34 32 33 37 36 35 34 33 33 33 32 33 35 36 34 33 38 40 42 44 46 47 47 45 45 45 44 41 39 38
46 46 47 47 47 47 46 47 48 47 47 47 47 46 46 45 41 33 31 35 40 39 33 28 29 32 33 35 35 35 36 33 34 32 31 33 33 36 34 34 35 34 40 41 41 40 37 40 38 40 38 34 32 30
44 42 43 45 44 44 45 46 47 47 46 46 45 45 45 45 43 35 37 41 39 34 33 27 26 30 33 32 31 34 32 34 31 32 32 31 32 32 27 26 24 23 33 33 34 38 40 38 34 32 32 32 29 28
44 44 44 45 44 43 42 43 45 46 45 44 43 42 42 34 31 32 39 40 37 33 26 26 24 23 33 30 32 32 32 29 31 30 29 30 29 25 19 20 17 16 18 20 29 31 32 31 30 30 30 29 27 25
44 44 44 44 44 44 43 42 43 43 43 42 40 33 29 30 36 37 33 31 27 25 26 21 20 24 29 29 28 30 28 24 25 25 28 28 20 18 16 14 13 13 14 16 27 26 27 25 24 22 20 21 22 21
43 43 43 43 43 43 43 42 41 41 40 32 30 28 32 35 34 27 21 22 19 20 18 18 20 23 29 26 24 26 24 22 22 23 24 24 23 16 14 10 9 10 12 11 15 17 18 22 20 18 15 13 13 12
42 42 42 42 41 41 41 41 41 31 27 29 29 27 30 24 25 20 12 17 16 12 14 14 19 22 26 28 27 24 22 22 20 20 23 21 14 7 7 7 5 6 7 7 8 9 10 10 13 13 11 9 8 7
41 40 40 40 40 40 39 39 38 35 31 30 26 20 21 17 12 13 10 13 14 10 11 12 17 22 27 27 23 24 22 18 19 20 20 14 6 3 2 2 4 2 4 4 5 6 7 5 4 5 4 3 6 4
40 40 40 39 38 38 37 36 35 31 24 16 17 9 10 11 9 8 8 8 10 10 8 9 13 20 24 23 22 20 16 17 16 14 18 8 -1 -2 -1 -1 -1 -1 -1 -0 -0 2 2 3 1 -0 -1 -1 1 1
38 38 38 38 38 36 34 32 28 18 18 13 16 5 6 4 4 4 3 5 8 7 8 12 15 18 23 21 19 16 14 14 17 17 8 2 -3 -3 -4 -5 -5 -5 -5 -3 -3 -2 -2 -2 -1 -1 -3 -3 -2 -2
36 34 32 37 36 33 32 24 17 16 6 9 3 7 3 7 7 5 3 5 7 5 7 9 14 18 18 18 16 16 16 15 14 4 -1 -2 -5 -7 -7 -7 -7 -7 -7 -6 -4 -4 -3 -5 -5 -4 -4 -4 -5 -4
32 25 34 36 33 29 26 17 15 1 4 6 -1 -7 -3 2 2 2 -0 3 5 4 11 10 15 12 17 16 14 12 13 5 -0 -2 -3 -5 -6 -8 -9 -8 -8 -9 -8 -8 -8 -6 -6 -6 -6 -4 -1 -2 -5 -4
24 28 33 33 27 23 12 11 8 7 0 -1 4 -1 -2 -3 1 3 3 3 1 4 7 7 7 14 14 12 14 4 1 -2 -3 -3 -2 -4 -7 -9 -9 -9 -9 -9 -9 -9 -9 -9 -8 -7 -4 -1 -5 -4 -6 -1
29 29 31 30 24 15 11 7 8 2 -3 -3 -1 -1 -1 -0 -1 -0 0 2 1 3 2 7 9 11 9 2 1 -1 -3 -5 -4 -3 -4 -7 -8 -9 -11 -10 -10 -9 -9 -10 -9 -7 -7 -8 -8 -7 -6 -6 -6 -4
28 29 29 25 24 16 8 4 9 6 2 0 -0 2 1 2 -1 -1 -0 -1 1 3 4 4 1 -2 -2 -4 -5 -6 -6 -7 -9 -6 -2 -4 -6 -12 -10 -9 -9 -9 -10 -9 -8 -10 -7 -5 -5 -6 -7 -8 -9 -6
22 22 23 18 11 8 3 2 2 0 1 2 -0 0 2 0 -1 -3 -2 -4 2 -3 2 -3 -4 -4 -8 -9 -9 -11 -10 -9 -8 -8 -7 -7 -7 -9 -8 -8 -10 -10 -11 -8 -8 -6 -11 -8 -5 -6 -8 -8 -7 -7
15 21 14 15 10 6 2 0 1 2 2 -0 2 -0 -1 1 -3 -6 -10 -1 -0 -2 -4 -5 -5 -7 -8 -10 -10 -14 -11 -16 -13 -13 -13 -13 -11 -7 -6 -7 -11 -10 -8 -8 -7 -8 -6 -5 -7 -9 -10 -9 -8 -8
14 14 7 6 6 3 -5 1 -0 -5 0 -2 -1 1 -2 -4 -7 -10 -2 -3 -2 -6 -9 -9 -10 -14 -13 -13 -19 -17 -17 -18 -13 -10 -9 -10 -9 -9 -10 -10 -10 -13 -12 -7 -6 -8 -8 -8 -9 -11 -9 -9 -9 -9
5 -7 -7 -7 -4 -8 -6 -8 -5 -5 -5 -7 -5 -3 -6 -12 -16 -3 2 1 -1 -10 -12 -12 -14 -9 -11 -18 -13 -8 -9 -16 -13 -11 -10 -13 -12 -8 -7 -9 -9 -9 -10 -9 -8 -9 -9 -9 -10 -10 -11 -11 -11 -12
3 -12 -11 -10 -10 -7 -9 -7 -10 -6 -10 -16 -11 -8 -10 -21 -5 -2 -0 3 -2 -4 -6 -14 -15 -12 -10 -7 -6 -8 -17 -13 -11 -9 -6 -10 -9 -10 -10 -9 -8 -8 -7 -11 -12 -11 -11 -11 -11 -12 -12 -12 -13 -13
-10 -22 -14 -15 -13 -10 -14 -10 -14 -16 -17 -14 -11 -14 -19 -12 -8 -2 1 2 -2 -3 -4 -7 -6 -7 -9 -12 -9 -7 -7 -14 -15 -15 -9 -9 -12 -12 -10 -11 -9 -6 -5 -9 -10 -10 -10 -10 -12 -13 -13 -13 -13 -15
-9 -15 -22 -28 -24 -22 -19 -25 -26 -20 -16 -14 -11 -13 -13 -11 -7 1 1 -3 -2 -2 -5 -5 -6 -6 -5 -4 -7 -9 -10 -15 -14 -8 -10 -12 -12 -11 -11 -12 -11 -6 -7 -11 -12 -12 -12 -12 -11 -11 -12 -11 -10 -12
-20 -23 -18 -23 -24 -28 -21 -21 -18 -16 -11 -20 -19 -15 -13 -6 -2 3 1 -4 -7 -13 -13 -12 -13 -11 -10 -8 -8 -10 -12 -14 -18 -19 -18 -15 -14 -13 -12 -11 -10 -4 -7 -9 -11 -11 -13 -13 -13 -13 -13 -13 -12 -10
-21 -31 -29 -27 -28 -24 -19 -14 -13 -15 -21 -18 -13 -9 -8 -7 -7 -7 -6 -13 -22 -19 -14 -10 -7 -16 -17 -17 -17 -17 -16 -16 -17 -16 -11 -6 -2 -2 -11 -12 -12 -12 -12 -12 -9 -7 -12 -14 -13 -13 -13 -13 -11 -10
-25 -37 -23 -27 -24 -14 -15 -23 -22 -32 -34 -33 -36 -28 -22 -20 -18 -17 -20 -20 -19 -13 -9 -10 -13 -17 -13 -14 -9 -10 -13 -15 -15 -10 -7 -5 -1 -6 -11 -11 -11 -11 -12 -13 -13 -11 -7 -6 -6 -8 -8 -9 -10 -11
-35 -33 -25 -23 -19 -21 -31 -39 -42 -42 -40 -37 -41 -35 -26 -26 -28 -21 -21 -16 -14 -17 -17 -13 -12 -15 -17 -15 -16 -13 -7 -7 -14 -14 -11 -7 -6 -6 -6 -5 -5 -7 -9 -11 -12 -13 -13 -13 -14 -14 -14 -14 -12 -11
-30 -27 -24 -19 -17 -31 -37 -32 -32 -31 -32 -34 -30 -40 -35 -30 -22 -9 -13 -21 -20 -15 -13 -12 -12 -6 -8 -8 -7 -6 -5 -3 -3 -8 -14 -11 -10 -8 -7 -6 -7 -8 -9 -10 -11 -12 -13 -15 -15 -14 -13 -13 -12 -11
-31 -34 -33 -28 -22 -22 -28 -30 -25 -25 -29 -27 -25 -29 -28 -25 -18 -7 -13 -16 -6 -2 0 -2 -3 -4 -9 -10 -8 -6 -6 -6 -5 -1 -0 -1 -4 -4 -4 -5 -6 -7 -9 -10 -11 -11 -12 -13 -14 -14 -14 -14 -13 -13
MSLP
996.99 997.20 997.27 997.17 997.22 997.20 997.41 997.81 998.20 998.79 998.99 999.06 999.29 999.70 999.87 1000.01 1000.40 1000.22 1000.88 1000.62 1000.64 1001.87 1002.98 1002.94 1002.85 1002.62 1002.25 1001.99 1001.69 1001.80 1001.38 1001.21 1001.32 1001.44 1002.15 1003.06 1003.98 1004.76 1005.09 1005.32 1005.23 1005.41 1006.16 1006.83 1007.66 1007.75 1006.59 1005.40 1005.97 1004.88 1004.79 1005.23 1005.43 1006.11
997.24 997.20 997.26 997.18 997.09 997.23 997.74 998.26 998.68 999.05 999.30 999.49 999.61 999.79 999.97 999.86 1000.15 1000.19 1001.10 1001.32 1001.30 1002.20 1003.67 1003.73 1003.84 1003.93 1003.74 1003.20 1002.30 1001.57 1000.78 1001.14 1000.35 1001.01 1002.16 1002.79 1003.98 1004.14 1004.17 1004.92 1004.85 1004.52 1003.48 1004.43 1005.38 1004.81 1004.80 1004.65 1004.39 1004.94 1005.45 1005.96 1006.79 1007.12
996.72 996.73 997.05 997.22 997.31 997.71 998.22 998.70 999.19 999.64 999.79 999.97 1000.05 1000.10 1000.31 1000.68 1000.56 1000.58 1001.23 1001.53 1001.54 1002.78 1003.51 1003.73 1004.13 1003.91 1003.64 1003.59 1003.25 1002.24 1001.65 1001.16 1000.92 1000.70 1001.78 1002.95 1003.75 1003.95 1003.89 1003.99 1004.12 1004.45 1003.88 1004.22 1005.28 1004.28 1004.46 1004.73 1005.71 1005.96 1006.56 1007.16 1007.58 1007.81
996.36 996.00 996.83 997.34 997.84 998.30 998.75 999.23 999.65 1000.12 1000.49 1000.64 1000.92 1001.21 1001.11 1001.24 1001.16 1001.22 1001.90 1002.58 1002.41 1002.94 1003.67 1004.67 1004.47 1004.43 1004.24 1003.48 1002.98 1002.56 1002.04 1001.75 1001.72 1001.83 1002.54 1003.20 1003.77 1004.03 1003.64 1003.23 1003.63 1003.75 1004.29 1004.02 1004.14 1004.78 1005.24 1005.51 1005.93 1006.57 1007.51 1008.08 1008.43 1008.82
997.66 997.56 997.86 998.15 998.71 999.06 999.43 999.80 1000.28 1000.63 1001.07 1001.37 1001.56 1001.80 1001.80 1001.80 1001.91 1001.86 1002.55 1003.41 1003.48 1003.55 1003.95 1004.77 1004.96 1005.28 1004.52 1003.84 1003.39 1002.91 1002.85 1002.80 1003.09 1003.45 1003.75 1004.08 1004.21 1004.68 1004.92 1004.46 1003.85 1003.35 1003.01 1003.53 1002.84 1004.14 1004.47 1004.92 1005.85 1006.94 1008.01 1008.70 1009.16 1009.49
998.76 998.85 998.93 999.41 999.89 1000.31 1000.43 1000.57 1000.88 1001.27 1001.61 1001.92 1002.03 1002.32 1002.18 1001.99 1001.83 1001.79 1003.11 1003.58 1003.95 1003.97 1004.05 1004.97 1005.71 1005.58 1004.97 1004.65 1004.15 1003.90 1003.96 1004.22 1004.35 1004.45 1004.71 1004.94 1005.15 1005.16 1005.31 1005.19 1004.77 1004.43 1004.55 1004.80 1004.35 1004.92 1005.39 1005.80 1006.53 1007.30 1008.30 1009.23 1009.90 1010.65
1000.20 1000.21 1000.41 1000.55 1000.69 1001.02 1001.20 1001.40 1001.68 1002.16 1002.43 1002.57 1002.84 1002.89 1002.72 1002.40 1002.57 1003.90 1005.30 1005.47 1004.67 1004.34 1004.50 1005.61 1005.84 1005.93 1005.75 1005.34 1005.31 1005.40 1005.33 1005.45 1005.32 1005.26 1005.39 1005.36 1005.93 1006.02 1006.16 1006.77 1007.15 1007.13 1006.62 1006.54 1006.48 1006.82 1007.24 1007.28 1007.36 1008.17 1009.11 1010.35 1011.23 1012.25
1001.67 1001.96 1001.92 1002.00 1002.25 1002.44 1002.16 1002.34 1002.65 1002.92 1003.32 1003.56 1003.58 1003.74 1003.82 1003.89 1004.34 1005.11 1005.69 1005.11 1004.83 1004.76 1004.96 1005.90 1006.46 1006.47 1006.52 1006.20 1006.28 1006.53 1006.16 1005.96 1006.18 1005.98 1005.98 1006.23 1006.97 1007.24 1008.59 1009.62 1010.09 1010.10 1009.12 1009.09 1008.50 1007.62 1007.70 1008.14 1008.52 1009.51 1010.56 1011.70 1012.90 1014.05
1003.76 1003.61 1003.83 1003.82 1003.86 1003.99 1004.08 1004.12 1003.99 1003.99 1004.19 1004.41 1004.54 1004.37 1004.39 1005.20 1005.99 1006.35 1006.01 1005.66 1005.40 1005.94 1006.57 1007.07 1007.51 1007.80 1007.48 1007.44 1007.21 1006.99 1006.78 1006.50 1006.92 1006.47 1006.99 1007.34 1008.17 1009.72 1011.65 1012.41 1012.82 1013.06 1013.00 1012.44 1011.15 1009.81 1010.04 1010.29 1010.52 1011.44 1012.09 1013.31 1014.43 1015.80
1005.58 1005.30 1005.33 1005.23 1005.21 1005.16 1005.19 1005.26 1005.07 1005.09 1004.94 1004.92 1004.89 1005.30 1006.74 1007.64 1007.53 1006.76 1006.40 1006.33 1006.90 1008.11 1008.36 1009.24 1010.18 1008.93 1008.63 1008.08 1007.76 1007.61 1007.57 1007.62 1007.34 1008.06 1008.31 1008.45 1010.69 1012.83 1014.68 1015.39 1015.99 1015.49 1015.31 1014.31 1012.87 1012.78 1012.53 1012.65 1013.39 1014.10 1014.83 1015.37 1016.07 1016.93
1007.00 1006.80 1006.76 1006.67 1006.51 1006.30 1006.13 1005.95 1005.73 1005.39 1005.21 1005.89 1006.82 1007.76 1008.02 1007.73 1007.15 1007.71 1008.69 1009.38 1010.37 1010.95 1011.81 1011.97 1011.34 1009.96 1009.59 1009.17 1008.88 1009.05 1008.67 1008.70 1008.47 1009.18 1009.45 1010.39 1012.56 1014.85 1016.76 1018.03 1018.39 1017.63 1017.01 1016.48 1016.07 1015.68 1015.61 1015.42 1015.41 1015.99 1017.00 1017.95 1018.26 1018.62
1008.44 1008.39 1008.34 1008.15 1007.91 1007.67 1007.33 1007.08 1006.68 1006.87 1008.24 1008.43 1008.47 1009.01 1008.59 1009.25 1009.21 1010.03 1011.85 1012.46 1012.82 1014.13 1014.23 1013.48 1012.46 1011.58 1010.22 1009.92 1009.61 1009.74 1009.41 1009.85 1010.10 1010.76 1011.15 1012.44 1015.06 1017.79 1019.20 1019.98 1019.98 1019.84 1019.30 1018.83 1018.72 1018.11 1018.50 1018.43 1018.45 1018.61 1019.24 1019.78 1020.02 1020.25
1010.00 1009.96 1009.84 1009.56 1009.32 1009.06 1008.80 1008.62 1008.36 1008.60 1008.79 1008.82 1009.44 1010.86 1011.59 1012.73 1013.08 1013.80 1014.62 1015.23 1015.84 1016.49 1016.41 1015.76 1014.01 1012.43 1010.89 1010.54 1010.31 1010.28 1010.73 1011.28 1011.43 1012.00 1013.15 1015.39 1017.63 1019.58 1021.02 1021.30 1021.47 1021.67 1021.37 1020.76 1020.37 1020.48 1020.69 1020.69 1021.05 1021.07 1021.58 1021.99 1021.84 1022.00
1011.21 1011.07 1010.84 1010.61 1010.47 1010.28 1010.16 1009.79 1009.34 1009.17 1009.68 1012.10 1013.08 1014.68 1015.78 1016.54 1017.43 1017.99 1018.34 1018.62 1018.91 1018.60 1018.07 1017.11 1014.96 1012.76 1011.49 1011.20 1011.35 1011.61 1012.52 1012.51 1013.21 1014.43 1015.83 1018.08 1020.89 1022.22 1022.56 1022.92 1023.18 1023.40 1023.08 1022.72 1022.62 1022.52 1022.57 1022.55 1022.72 1023.06 1023.25 1023.40 1023.16 1023.41
1012.37 1012.05 1011.67 1011.67 1011.63 1011.32 1010.87 1010.77 1010.57 1011.01 1013.26 1015.34 1015.94 1018.23 1019.10 1019.97 1020.12 1020.32 1020.56 1020.45 1020.35 1020.22 1019.04 1016.99 1015.31 1013.96 1012.23 1011.71 1012.24 1013.13 1013.92 1014.22 1015.28 1016.59 1018.51 1021.25 1023.19 1023.57 1024.10 1024.64 1024.91 1024.83 1024.77 1024.74 1024.53 1024.29 1024.25 1024.16 1024.18 1024.24 1024.43 1024.28 1023.98 1024.05
1013.13 1012.77 1013.31 1013.05 1012.73 1012.53 1011.88 1011.88 1012.48 1014.09 1017.48 1018.83 1020.31 1021.40 1021.63 1021.27 1021.55 1021.79 1021.98 1021.65 1021.54 1020.80 1019.58 1018.25 1016.10 1014.30 1013.40 1013.37 1014.01 1014.75 1015.46 1016.50 1017.84 1019.45 1021.64 1023.26 1024.60 1025.20 1025.65 1025.97 1026.38 1026.34 1025.72 1025.64 1025.83 1025.55 1025.30 1025.04 1024.94 1025.06 1025.09 1024.97 1024.70 1024.73
1014.09 1015.28 1014.70 1013.71 1013.30 1013.19 1013.02 1013.52 1015.27 1018.32 1020.15 1021.59 1023.55 1024.45 1023.84 1023.51 1023.58 1023.68 1023.86 1023.42 1023.19 1022.07 1020.42 1019.08 1017.42 1016.44 1015.90 1015.76 1016.39 1017.60 1018.82 1019.78 1020.92 1022.16 1023.78 1025.05 1025.87 1026.52 1026.88 1027.02 1026.90 1026.63 1026.08 1026.06 1025.95 1025.86 1026.05 1026.37 1025.75 1025.28 1025.22 1025.03 1025.24 1025.02
1016.46 1016.42 1015.40 1014.58 1014.16 1014.24 1016.03 1017.29 1018.78 1020.67 1023.05 1024.21 1024.26 1024.90 1024.84 1024.96 1024.69 1024.53 1024.45 1024.29 1023.75 1022.62 1021.37 1020.55 1019.61 1018.35 1018.02 1018.45 1019.05 1020.39 1021.35 1022.55 1023.78 1024.65 1025.41 1026.06 1026.61 1027.37 1027.49 1027.40 1027.19 1026.86 1026.72 1026.54 1026.72 1026.76 1026.76 1026.69 1026.35 1025.87 1025.70 1025.43 1025.13 1024.76
1016.96 1016.62 1015.96 1015.47 1015.34 1016.32 1018.53 1020.35 1021.03 1022.83 1024.86 1025.26 1025.26 1025.40 1025.40 1025.39 1025.60 1025.58 1025.31 1024.94 1024.62 1023.98 1023.09 1021.58 1021.03 1020.86 1021.32 1022.14 1022.86 1023.69 1024.62 1025.40 1025.84 1026.04 1026.41 1027.00 1027.55 1027.94 1027.90 1027.68 1027.55 1027.31 1027.17 1027.04 1027.10 1026.91 1026.78 1026.67 1026.31 1026.37 1025.96 1025.85 1025.17 1024.82
1017.19 1016.98 1016.60 1016.56 1015.97 1017.94 1020.74 1022.60 1022.85 1023.48 1025.06 1025.59 1025.51 1025.34 1025.49 1025.56 1025.88 1025.76 1025.47 1025.11 1024.62 1024.15 1023.60 1023.57 1023.86 1024.40 1025.01 1025.69 1026.34 1026.66 1026.98 1027.38 1027.45 1027.03 1026.77 1027.14 1027.48 1027.75 1027.75 1027.68 1027.56 1027.51 1027.39 1026.96 1026.77 1026.71 1026.31 1026.13 1026.15 1026.32 1026.19 1026.18 1025.57 1024.92
1017.66 1017.88 1017.55 1017.38 1019.16 1020.67 1023.23 1024.47 1024.84 1025.45 1025.50 1025.62 1025.97 1025.87 1025.73 1025.83 1025.91 1026.01 1025.96 1025.75 1024.92 1025.14 1025.09 1025.76 1026.00 1026.53 1027.38 1027.83 1028.23 1028.55 1028.70 1028.84 1028.47 1028.23 1027.89 1027.66 1027.55 1027.53 1027.31 1027.17 1027.36 1027.36 1027.19 1026.82 1026.65 1026.40 1026.45 1026.24 1026.09 1026.14 1025.95 1025.54 1025.15 1024.98
1019.50 1019.05 1019.18 1019.62 1021.12 1022.88 1024.86 1026.37 1026.44 1026.28 1026.06 1026.18 1026.16 1026.37 1026.39 1026.57 1026.93 1027.33 1027.36 1026.20 1025.99 1026.35 1026.82 1027.05 1027.33 1027.65 1027.99 1028.32 1028.56 1028.90 1028.97 1029.16 1028.87 1028.63 1028.58 1028.25 1027.74 1027.22 1026.98 1027.03 1027.22 1026.97 1026.77 1026.56 1026.36 1026.13 1025.81 1025.64 1025.73 1025.64 1025.46 1025.18 1025.08 1024.96
1020.65 1020.55 1021.70 1022.54 1023.35 1024.83 1027.49 1027.20 1027.04 1027.23 1027.07 1027.09 1026.97 1026.96 1027.42 1027.80 1027.89 1028.23 1027.14 1026.50 1026.42 1026.99 1027.56 1027.94 1028.15 1028.37 1028.56 1028.71 1029.11 1029.07 1029.14 1029.23 1028.86 1028.40 1028.17 1027.99 1027.73 1027.53 1027.35 1027.17 1027.16 1027.07 1026.67 1026.03 1025.91 1025.80 1025.54 1025.40 1025.39 1025.51 1025.40 1025.40 1025.30 1025.01
1023.12 1025.03 1026.25 1027.13 1027.53 1028.54 1028.59 1028.63 1028.69 1028.50 1028.37 1028.39 1028.29 1028.31 1028.91 1029.52 1028.87 1027.62 1026.48 1026.00 1026.22 1027.26 1027.77 1028.02 1028.45 1028.28 1028.26 1028.55 1028.34 1027.99 1028.10 1028.56 1028.30 1027.85 1027.64 1027.58 1027.17 1026.59 1026.37 1026.26 1026.11 1025.92 1025.71 1025.40 1025.27 1025.06 1024.89 1024.82 1024.89 1024.94 1024.83 1024.67 1024.43 1024.18
1025.31 1031.03 1031.41 1031.27 1031.06 1030.52 1030.71 1030.58 1030.42 1029.99 1030.50 1030.46 1030.11 1029.91 1030.37 1030.78 1029.01 1027.11 1026.04 1025.47 1025.94 1026.60 1027.15 1027.99 1028.37 1028.33 1028.23 1027.76 1027.31 1027.32 1027.54 1027.83 1027.66 1027.18 1026.45 1026.60 1026.31 1025.90 1025.51 1025.06 1024.68 1024.32 1024.35 1024.47 1024.20 1024.11 1023.95 1023.97 1024.02 1024.02 1023.96 1023.91 1023.69 1023.40
1029.58 1034.58 1035.17 1035.04 1034.41 1033.59 1033.53 1033.22 1033.04 1032.92 1032.38 1031.78 1031.18 1031.19 1031.21 1030.28 1028.53 1026.43 1025.41 1025.31 1025.82 1026.34 1026.73 1027.19 1027.44 1027.67 1027.60 1027.56 1027.27 1027.01 1027.09 1027.52 1027.82 1027.35 1026.26 1026.10 1026.15 1026.07 1025.49 1025.03 1024.31 1023.30 1023.24 1023.59 1023.72 1023.57 1023.42 1023.38 1023.37 1023.33 1023.13 1022.92 1022.78 1022.72
1033.19 1035.99 1037.10 1038.01 1036.98 1036.11 1035.57 1035.54 1035.42 1034.66 1033.90 1033.48 1032.76 1032.00 1031.54 1030.21 1027.91 1025.92 1025.37 1025.68 1025.85 1025.91 1026.16 1026.31 1026.55 1026.70 1026.42 1026.22 1026.19 1026.25 1026.42 1026.87 1026.65 1025.83 1025.44 1025.42 1025.19 1024.92 1024.80 1024.35 1023.42 1022.53 1022.57 1022.91 1023.05 1023.01 1022.90 1022.67 1022.49 1022.28 1022.02 1021.69 1021.44 1021.29
1036.20 1037.42 1038.01 1038.07 1037.40 1037.19 1036.66 1036.41 1035.87 1035.21 1034.70 1034.94 1034.65 1033.31 1031.78 1029.25 1027.08 1025.67 1025.55 1025.86 1026.17 1026.44 1026.49 1026.41 1026.47 1026.45 1026.29 1025.99 1025.89 1025.98 1025.91 1026.07 1026.24 1026.00 1025.36 1024.29 1023.53 1023.23 1023.02 1022.79 1022.40 1022.15 1022.26 1022.18 1022.15 1022.08 1022.00 1021.77 1021.48 1021.18 1020.91 1020.50 1019.99 1019.84
1038.25 1039.07 1039.12 1038.36 1037.69 1037.48 1036.80 1036.56 1036.51 1036.58 1036.81 1036.56 1036.10 1034.20 1031.99 1029.38 1027.50 1026.71 1026.44 1027.19 1027.85 1027.42 1026.76 1026.13 1025.71 1025.91 1025.85 1025.80 1025.61 1025.42 1025.45 1025.65 1025.93 1025.15 1024.13 1022.71 1021.67 1021.10 1020.85 1021.07 1021.04 1020.96 1020.89 1020.79 1020.53 1020.36 1020.30 1020.22 1019.91 1019.70 1019.32 1019.08 1018.59 1018.40
1039.66 1040.48 1039.26 1038.52 1038.07 1037.05 1037.06 1037.63 1038.08 1038.47 1038.65 1038.52 1038.09 1036.03 1033.73 1030.48 1027.63 1027.15 1027.07 1027.28 1027.25 1026.32 1025.52 1025.30 1025.27 1025.63 1025.19 1025.09 1024.47 1024.02 1023.70 1023.76 1023.80 1023.56 1022.55 1021.27 1020.16 1019.71 1019.82 1019.93 1019.86 1019.67 1019.67 1019.67 1019.40 1019.05 1018.85 1018.57 1018.12 1017.91 1017.69 1017.51 1017.24 1016.78
1040.01 1040.03 1039.33 1038.42 1037.68 1037.73 1038.64 1039.31 1039.56 1039.70 1039.60 1039.16 1039.16 1038.30 1035.67 1032.82 1029.13 1026.25 1026.00 1025.60 1025.44 1025.36 1025.33 1024.61 1024.11 1024.17 1024.12 1023.66 1023.50 1023.05 1022.10 1021.20 1021.27 1021.16 1020.74 1020.03 1019.47 1019.09 1018.73 1018.45 1018.27 1018.19 1018.14 1018.04 1017.88 1017.62 1017.35 1017.15 1016.91 1016.57 1016.27 1015.89 1015.49 1015.25
1039.71 1039.68 1039.44 1038.62 1037.62 1038.49 1039.16 1039.31 1039.14 1039.00 1038.70 1038.52 1037.91 1037.83 1036.28 1034.85 1031.82 1025.83 1023.96 1024.51 1024.81 1024.14 1023.28 1023.44 1023.12 1022.18 1021.59 1021.47 1021.25 1021.06 1020.53 1020.09 1019.77 1019.66 1019.58 1019.16 1018.56 1017.95 1017.57 1017.22 1016.94 1016.80 1016.62 1016.39 1016.22 1016.03 1015.90 1015.73 1015.41 1015.03 1014.58 1014.15 1013.79 1013.48
1039.77 1039.92 1039.76 1039.27 1038.32 1038.11 1038.61 1038.62 1037.99 1037.29 1036.96 1036.29 1035.67 1035.47 1034.98 1033.91 1030.98 1025.56 1022.96 1022.83 1022.06 1021.61 1021.26 1020.91 1020.48 1020.45 1020.55 1020.55 1020.29 1019.90 1019.58 1019.14 1018.66 1018.33 1017.92 1017.51 1017.03 1016.55 1016.17 1015.85 1015.59 1015.42 1015.22 1014.92 1014.70 1014.56 1014.31 1014.06 1013.72 1013.39 1013.03 1012.68 1012.28 1011.92
Wind_Speed
2 1 4 1 3 9 17 16 17 16 10 12 12 12 10 8 6 3 2 5 2 3 3 6 5 3 1 3 6 4 5 2 3 5 4 4 5 8 6 12 13 12 12 8 6 9 21 7 8 19 8 3 3 1
1 3 5 3 9 18 18 17 17 15 12 11 11 10 10 8 6 2 2 2 5 5 3 1 3 5 4 5 3 1 1 4 4 6 2 5 3 4 7 7 3 11 11 8 14 12 2 8 6 6 3 3 4 3
11 10 10 9 18 17 18 18 19 12 14 12 11 9 10 11 12 6 3 5 3 3 3 1 4 5 5 5 5 0 2 2 4 5 4 3 5 3 7 5 7 3 8 5 5 8 5 8 2 0 2 3 3 1
20 17 26 22 18 18 17 18 19 16 15 13 12 9 10 11 13 8 6 5 2 2 3 4 4 4 11 8 2 2 2 4 5 3 3 3 4 2 3 5 3 3 9 6 4 3 3 0 5 7 6 5 7 5
20 23 24 23 21 19 18 18 18 17 15 13 13 14 17 18 19 12 7 6 6 2 3 2 2 6 10 9 12 10 7 4 3 3 2 2 4 3 2 2 3 6 6 10 11 13 9 7 11 10 10 8 7 7
20 21 22 21 20 17 15 15 17 17 16 15 16 14 8 5 2 2 4 5 10 5 2 2 1 5 6 9 11 10 6 4 3 2 3 3 2 1 5 4 4 4 2 4 2 6 3 11 11 10 10 9 7 8
21 20 21 21 18 18 15 15 17 19 16 14 12 11 10 14 9 6 4 7 13 4 2 3 2 4 5 4 4 4 4 3 2 2 2 2 2 2 0 3 6 9 3 4 9 8 7 8 7 10 12 12 11 11
33 33 28 25 25 25 19 20 17 20 20 19 19 18 17 17 12 4 4 14 8 2 3 3 2 1 7 4 2 4 3 1 4 2 2 2 1 1 1 6 7 11 5 9 10 4 7 13 14 13 11 11 11 9
30 30 27 27 27 26 25 21 17 16 13 10 7 4 4 8 4 3 20 10 3 5 3 3 3 3 6 3 2 1 2 2 2 2 3 2 2 1 3 4 7 11 7 10 10 8 10 12 13 10 10 9 10 8
30 30 29 28 25 21 18 13 12 9 6 4 5 4 4 3 15 10 4 5 7 6 6 5 1 3 4 3 3 2 2 3 2 3 3 2 3 6 6 6 6 8 10 13 2 6 7 10 8 8 10 8 8 8
32 32 31 29 28 27 25 19 11 7 11 5 4 3 2 10 1 4 4 5 5 4 6 4 3 4 5 3 3 4 1 2 1 3 3 1 3 5 6 7 8 10 10 12 10 10 11 8 8 9 8 7 7 7
31 31 30 29 28 26 25 24 20 8 3 3 4 1 2 7 4 6 3 3 7 4 6 5 5 4 3 3 1 3 2 1 1 3 2 2 5 6 6 8 10 11 11 11 12 12 12 12 10 8 7 6 6 6
29 30 30 30 28 27 24 19 16 9 2 2 5 6 6 5 9 6 4 3 2 7 6 6 3 4 2 1 2 1 1 2 2 1 2 3 4 6 7 7 7 10 11 11 12 11 10 10 11 10 7 6 5 6
27 29 29 29 29 25 22 21 16 6 7 6 6 7 5 3 4 3 3 3 3 4 7 6 4 4 2 1 1 1 2 1 0 2 2 3 3 4 6 7 7 9 10 10 10 10 9 8 7 7 6 5 5 5
17 22 30 28 25 26 19 18 17 8 6 6 4 5 5 2 2 3 2 3 3 6 5 3 4 2 1 1 3 2 2 3 3 1 3 3 3 4 5 6 7 7 7 7 7 6 6 6 4 4 5 5 4 3
10 11 15 27 20 21 17 9 8 4 6 5 8 3 2 1 2 2 4 3 5 6 4 2 3 3 2 3 2 2 2 2 1 3 2 1 2 3 3 4 4 4 5 5 5 5 5 5 4 4 3 3 4 4
15 6 24 24 19 12 24 7 5 9 5 5 4 1 2 1 3 2 2 4 6 4 2 3 2 3 3 2 2 2 2 3 3 2 2 2 2 2 3 4 4 4 5 5 5 5 6 6 4 3 2 2 4 3
5 8 20 22 11 6 5 8 5 6 7 3 2 3 1 1 2 1 3 4 4 4 4 3 3 2 2 3 2 2 3 2 1 2 2 1 1 2 3 4 5 5 5 5 4 4 4 5 5 2 3 4 5 2
7 12 18 20 9 5 5 6 5 5 3 1 0 0 1 1 1 3 3 4 2 2 4 2 3 2 2 2 2 1 1 1 2 2 3 2 3 3 2 3 5 4 5 5 4 4 4 4 4 4 3 3 3 3
7 17 20 15 10 4 5 5 3 4 3 2 1 2 2 2 3 2 3 4 3 2 1 2 2 2 2 2 2 2 2 2 2 3 1 1 1 2 4 3 4 4 5 5 4 3 3 4 2 2 2 4 4 4
8 10 14 7 5 8 6 4 4 3 1 1 2 3 2 2 2 4 3 5 1 2 1 0 1 1 0 2 2 1 3 3 3 2 2 3 2 3 5 4 3 3 3 4 4 4 4 5 4 3 3 4 4 4
4 11 4 7 5 4 6 5 3 2 2 1 1 2 2 2 3 4 5 2 2 1 0 1 1 2 2 2 1 4 2 2 3 4 5 4 5 3 3 2 3 5 5 5 5 5 5 4 3 3 4 5 4 5
7 5 5 7 5 7 2 4 2 6 2 3 2 1 2 2 2 5 2 1 2 0 0 1 2 2 4 3 2 5 5 5 5 5 5 5 5 5 6 6 5 6 6 6 5 5 5 4 4 5 5 5 6 6
11 9 8 6 7 3 2 5 2 3 2 4 4 2 3 4 7 1 2 1 1 1 2 2 1 3 2 3 3 3 3 5 5 5 5 4 6 6 5 5 5 6 7 5 5 6 5 6 6 6 6 6 6 6
7 11 7 7 4 5 6 5 5 5 3 3 4 2 2 4 3 2 2 1 1 2 2 2 2 3 3 3 4 3 3 4 4 5 3 5 5 5 6 6 6 7 5 5 6 6 6 5 5 6 7 7 8 8
9 6 5 2 3 4 2 3 3 3 2 3 1 2 2 2 2 4 2 1 2 2 2 4 3 2 4 6 4 2 1 4 2 4 4 5 5 5 5 6 7 6 5 5 5 6 7 6 6 8 8 10 10 9
5 2 2 1 1 1 0 1 0 1 2 2 2 3 3 2 4 3 1 3 3 3 3 3 4 5 5 4 4 4 3 4 7 5 3 3 5 7 7 9 11 7 3 5 5 6 7 7 8 8 9 9 9 9
3 1 1 1 1 0 1 1 2 3 2 2 0 2 4 6 5 2 3 1 1 1 3 3 4 4 5 6 4 3 4 3 4 6 7 10 11 9 11 11 11 16 10 8 8 8 9 10 10 10 11 11 11 8
2 1 1 0 0 3 5 4 3 1 1 1 2 4 5 3 3 3 0 1 1 2 4 4 4 2 5 5 5 6 5 4 2 5 11 9 6 5 7 7 7 7 7 8 12 14 14 12 12 12 13 11 11 10
2 1 1 1 2 4 1 0 0 1 1 2 3 5 5 6 6 2 3 3 4 6 5 3 2 2 5 2 6 6 6 8 9 9 8 10 8 1 2 5 6 7 6 7 9 9 12 13 12 11 13 11 10 12
1 1 2 2 4 1 2 2 0 1 1 2 0 3 5 8 9 5 7 6 6 3 3 6 5 6 6 6 5 5 8 5 11 14 13 10 9 9 9 9 8 7 7 9 9 10 10 10 10 12 14 16 17 16
1 0 0 3 2 1 1 1 2 2 2 2 3 2 4 3 7 5 4 5 3 5 9 6 4 7 7 7 5 6 10 9 8 8 10 10 11 12 11 10 9 8 10 11 11 11 12 14 12 13 14 18 18 18
1 1 1 3 4 2 2 3 2 3 2 3 4 4 3 3 9 5 2 7 7 5 7 7 7 5 4 6 7 8 8 9 13 14 16 17 18 16 11 9 9 9 12 11 12 12 15 17 16 17 18 18 18 18
Wind_Direction
231 258 346 292 212 205 159 147 141 134 123 115 110 106 96 78 80 96 57 18 53 91 48 14 16 18 354 183 165 161 140 334 30 101 124 147 135 185 140 158 171 167 170 191 199 223 253 151 151 188 207 72 75 109
98 304 337 215 204 147 152 142 129 131 136 105 106 92 84 66 57 113 87 36 39 80 101 37 86 49 11 335 325 285 91 177 168 114 143 103 108 151 133 178 220 190 199 166 188 209 168 179 193 218 86 117 176 202
314 276 182 194 137 132 133 140 128 131 125 112 102 85 74 68 57 83 87 7 58 98 104 65 0 344 357 342 287 274 343 36 49 27 123 138 144 159 167 179 127 236 201 195 121 204 184 170 154 28 135 164 135 108
91 110 136 122 115 122 126 135 130 126 111 110 104 92 78 77 74 81 68 356 36 76 86 59 324 21 320 336 3 358 44 65 76 36 93 122 130 248 183 130 175 143 136 156 268 91 58 254 201 182 155 129 124 93
84 92 95 101 101 99 114 121 122 111 105 103 102 103 98 90 91 90 84 53 34 13 101 82 246 4 1 25 31 36 44 54 48 85 103 125 99 129 7 68 199 189 165 193 223 165 199 193 172 146 156 158 142 129
75 81 85 96 98 94 98 109 113 107 101 100 108 103 66 49 22 49 65 52 14 359 102 83 325 349 353 12 30 33 28 32 58 84 86 93 38 289 170 187 66 73 356 355 294 101 128 132 133 149 145 133 98 88
79 85 85 79 84 87 87 111 113 102 97 93 94 83 72 65 54 55 56 337 336 307 95 122 77 15 348 346 31 9 26 41 27 88 66 88 82 348 202 137 50 15 58 98 120 117 104 163 145 117 112 98 84 77
72 65 70 78 75 69 71 107 103 101 100 96 88 85 82 93 105 54 359 348 347 94 40 86 49 62 8 19 33 352 10 2 27 51 104 75 101 46 75 44 16 4 14 39 3 1 93 107 102 98 101 108 95 89
67 69 69 68 72 72 67 68 82 86 89 89 80 82 56 33 32 316 320 322 26 45 88 51 17 60 346 23 351 43 323 52 310 49 53 315 153 119 45 357 24 8 0 321 326 76 88 95 100 93 101 87 101 100
62 63 61 60 59 59 63 53 43 70 63 58 37 32 58 1 312 302 2 16 23 3 20 60 285 34 330 359 44 339 13 25 17 48 296 20 69 82 40 40 14 12 359 340 150 75 83 86 78 76 71 67 79 90
59 57 53 51 48 45 43 38 22 2 35 34 36 48 321 316 336 33 53 36 340 55 13 352 352 11 22 5 31 12 40 351 323 44 321 95 145 90 45 30 12 16 21 23 36 45 28 59 100 101 80 64 63 64
53 51 48 45 42 39 34 32 32 47 29 62 81 104 357 21 23 56 32 2 29 38 346 332 348 343 335 326 309 23 36 279 155 330 291 260 84 61 39 23 20 14 19 40 36 45 38 38 36 67 70 64 56 61
52 47 41 37 34 32 32 33 37 80 90 31 41 44 5 339 43 22 15 59 55 354 10 346 335 332 291 348 56 355 344 37 292 261 271 28 52 36 17 10 19 22 21 32 39 41 48 52 42 43 55 28 34 52
49 43 34 29 24 23 26 25 26 49 54 55 25 32 26 40 65 34 1 358 19 321 334 316 283 323 348 43 5 163 36 308 218 252 249 64 40 12 19 20 22 11 15 27 28 25 30 35 54 50 45 24 17 32
32 33 28 17 15 13 14 21 30 40 49 55 25 51 53 52 47 14 327 294 12 319 314 297 255 264 316 104 37 128 174 217 228 266 52 51 10 14 32 21 17 15 12 13 11 18 21 14 21 49 28 22 30 22
26 36 9 1 7 14 17 39 30 69 60 53 39 111 53 238 75 34 3 350 6 332 300 263 304 304 34 350 233 249 250 228 66 42 43 17 15 20 22 18 9 357 3 357 354 351 351 7 4 352 332 15 13 5
54 32 345 356 4 20 23 60 46 46 65 50 59 42 359 57 38 7 335 343 335 298 358 303 297 20 300 248 219 353 327 17 15 28 17 21 14 32 359 342 352 349 357 357 349 350 339 326 306 285 272 7 334 308
44 333 356 359 8 34 40 27 71 59 64 41 35 33 16 354 324 355 350 348 326 347 316 22 306 260 325 315 26 27 22 16 33 326 319 286 256 279 320 330 339 339 336 338 326 311 289 301 287 312 318 339 309 304
23 13 10 12 34 71 52 37 10 84 54 4 334 166 267 319 264 288 295 325 278 296 296 279 289 354 32 16 346 20 14 352 325 332 300 280 269 269 281 315 311 308 321 318 305 300 287 282 284 307 323 314 307 319
10 16 8 23 30 66 67 35 345 72 62 30 291 0 338 348 334 306 311 353 325 281 24 23 24 14 334 19 348 331 332 333 314 300 236 136 159 204 249 292 298 310 288 279 259 262 284 287 236 254 271 282 296 305
22 351 6 43 48 55 72 4 64 38 74 53 356 339 337 341 7 6 348 343 316 33 32 38 290 303 275 276 276 279 271 249 257 278 324 306 15 307 299 295 281 276 280 292 279 272 231 250 261 258 269 281 282 281
348 0 42 17 70 65 79 22 22 15 338 31 12 342 7 3 358 8 316 300 31 20 281 276 288 294 282 265 241 208 272 276 272 278 268 274 281 280 278 278 292 280 272 264 262 263 269 267 252 259 268 275 273 274
6 18 47 13 73 41 12 338 27 6 19 5 297 339 40 347 359 322 257 253 293 152 307 265 273 260 265 304 289 253 213 217 249 246 248 246 257 262 263 258 239 247 262 258 229 244 253 254 240 250 257 252 254 259
27 44 34 37 12 37 320 27 23 12 30 18 4 3 2 322 327 261 294 273 107 128 225 214 259 283 220 227 253 254 196 196 248 265 242 244 263 260 240 250 244 233 233 258 256 249 246 243 238 241 239 246 252 256
60 2 9 11 15 21 26 6 355 26 27 356 334 336 1 330 306 306 270 261 221 230 208 166 225 238 257 280 276 259 182 202 232 265 256 216 264 288 272 250 250 247 227 235 245 243 249 240 241 243 242 239 246 254
69 344 40 346 332 13 5 351 18 355 331 311 269 345 332 312 293 251 226 209 233 228 204 202 213 227 242 219 271 276 261 173 202 250 263 220 219 239 271 284 293 283 192 212 237 244 248 240 238 237 244 243 242 244
78 350 54 130 7 133 134 108 83 266 285 283 346 343 350 315 266 261 276 205 218 203 212 204 196 213 238 251 224 238 220 192 216 248 314 267 245 230 232 249 259 248 166 196 216 227 247 255 254 249 252 255 247 240
86 347 148 319 133 61 226 297 229 230 232 126 174 258 204 208 238 222 218 149 270 297 272 256 237 241 252 254 263 272 263 234 267 272 268 252 239 237 234 239 249 260 259 240 238 240 238 244 250 253 252 255 262 249
75 70 235 172 284 214 220 208 232 75 34 202 222 263 257 257 291 267 279 43 34 293 278 269 249 202 258 253 245 239 231 215 220 274 281 282 291 259 198 218 230 230 228 236 242 235 232 234 239 240 246 251 259 264
27 330 310 41 202 234 155 45 127 60 296 323 311 292 264 259 249 240 247 215 228 232 237 252 267 238 261 278 287 276 206 201 206 218 249 262 261 234 193 219 228 231 224 228 245 254 258 263 268 268 257 250 246 249
100 220 270 238 266 35 38 10 211 248 262 258 178 255 276 310 305 241 217 223 226 222 260 264 250 206 227 236 222 264 283 209 213 223 235 258 270 270 269 265 256 249 242 241 243 246 250 250 246 251 253 253 254 254
232 157 355 287 283 98 194 326 305 267 192 235 218 211 277 280 270 276 175 151 170 220 230 224 242 258 209 230 237 238 251 275 269 245 236 243 252 257 261 261 257 250 249 250 251 253 253 250 256 258 262 263 263 262
206 206 237 284 295 300 33 325 254 291 225 247 234 201 235 253 255 290 275 217 224 220 226 217 227 247 236 238 248 265 260 259 265 268 268 262 258 262 267 266 261 256 255 255 255 255 256 255 256 257 260 262 264 266